#timestamp,LO_Frequency,Hit,StdDev 
1513929615.4,286047001.3,N
1513929635.3,286047005.4,Y
1513929655.1,286047005.3,P
1513929675.9,286047004.7,N
1513929695.7,286047005.5,N
1513929715.5,286047011.9,Y
1513929735.4,286047000.8,P
1513929755.2,286047002.0,N
1513929775.0,286047000.1,N
1513929775.9,286047000.1,N
1513929795.8,286047000.1,N
1513929815.6,286047001.6,N
1513929835.5,286047002.1,N
1513929855.3,286047001.5,N
1513929875.1,286047001.4,N
1513929895.9,286047003.7,Y
1513929915.7,286047001.4,P
1513929935.6,286047004.1,P
1513929955.4,286047002.9,N
1513929975.2,286047004.1,Y
1513929995.1,286047001.2,P
1513929996.0,286047001.2,N
1513930015.8,286046998.4,N
1513930035.7,286046999.1,N
1513930055.5,286046996.8,N
1513930075.3,286046996.1,N
1513930095.2,286046996.2,N
1513930115.9,286046993.6,N
1513930135.7,286046994.5,N
1513930155.6,286046993.8,N
1513930175.4,286046993.8,N
1513930195.2,286046994.6,N
1513930215.1,286046995.7,N
1513930216.0,286046995.7,N
1513930235.8,286046997.9,N
1513930255.7,286046997.5,N
1513930275.5,286046996.1,N
1513930295.3,286046997.3,N
1513930315.2,286046995.9,N
1513930335.0,286046996.2,N
1513930335.9,286046996.2,N
1513930355.8,286046996.6,N
1513930375.6,286046997.5,N
1513930395.4,286046997.0,N
1513930415.3,286046995.4,N
1513930435.1,286046995.2,N
1513930455.8,286046993.5,N
1513930475.7,286046994.4,N
1513930495.5,286046992.2,Y
1513930515.4,286046995.1,P
1513930535.2,286046997.5,P
1513930555.0,286046999.6,N
1513930555.9,286046999.6,N
1513930575.8,286046997.4,N
1513930595.6,286046996.9,N
1513930615.4,286046999.2,N
1513930635.3,286046997.9,N
1513930655.1,286046998.0,N
1513930675.9,286046996.7,N
1513930695.7,286046996.5,N
1513930715.5,286046998.0,N
1513930735.4,286046997.0,N
1513930755.2,286046997.4,N
1513930775.1,286046997.1,N
1513930776.0,286046997.1,N
1513930795.8,286046999.1,N
1513930815.6,286046996.5,Y
1513930835.5,286047001.0,P
1513930855.3,286047002.6,N
1513930875.1,286047003.7,N
1513930895.9,286047003.2,N
1513930915.7,286047002.2,N
1513930935.6,286047000.3,N
1513930955.4,286046998.6,N
1513930975.2,286046998.5,N
1513930995.1,286046998.9,N
1513930996.0,286046998.9,N
1513931015.8,286047001.0,N
1513931035.6,286047001.3,N
1513931055.5,286047000.6,N
1513931075.3,286047000.0,N
1513931095.2,286047000.3,N
1513931115.9,286046998.1,N
1513931135.7,286047000.1,N
1513931155.6,286046999.7,N
1513931175.4,286047002.7,N
1513931195.3,286047002.3,N
1513931215.1,286046999.8,N
1513931235.8,286047000.2,N
1513931255.7,286047000.6,N
1513931275.5,286047001.2,N
1513931295.4,286046998.6,N
1513931315.2,286046999.0,N
1513931335.0,286047001.1,N
1513931335.9,286047001.1,N
1513931355.8,286046998.7,N
1513931375.6,286046996.7,N
1513931395.4,286046999.6,N
1513931415.3,286046999.3,N
1513931435.1,286047000.7,N
1513931455.9,286046998.7,N
1513931475.7,286046998.2,N
1513931495.5,286046998.2,N
1513931515.4,286047000.8,N
1513931535.2,286047000.6,N
1513931555.0,286047000.7,N
1513931555.9,286047000.7,N
1513931575.8,286047000.7,N
1513931595.6,286047000.4,N
1513931615.5,286047000.3,N
1513931635.3,286047000.6,N
1513931655.1,286046998.3,N
1513931675.9,286047000.7,N
1513931695.7,286046998.5,N
1513931715.6,286047000.5,N
1513931735.4,286046998.3,N
1513931755.2,286046998.6,N
1513931775.1,286046998.8,N
1513931776.0,286046998.8,N
1513931795.8,286046996.5,N
1513931815.6,286046997.3,N
1513931835.5,286046997.3,N
1513931855.3,286046995.6,Y
1513931875.2,286046995.1,P
1513931895.9,286046996.4,N
1513931915.7,286046995.8,N
1513931935.6,286046995.8,N
1513931955.4,286046995.1,Y
1513931975.2,286046998.6,P
1513931995.1,286047000.9,N
1513931996.0,286047000.9,N
1513932015.8,286046998.5,N
1513932035.7,286046998.9,N
1513932055.5,286047000.7,N
1513932075.3,286046999.4,N
1513932095.2,286046998.6,N
1513932115.0,286046999.5,N
1513932115.9,286046999.5,N
1513932135.8,286046999.2,N
1513932155.6,286046999.6,N
1513932175.4,286046998.7,N
1513932195.3,286046998.1,N
1513932215.1,286046998.2,N
1513932235.8,286047000.9,N
1513932255.7,286046999.1,N
1513932275.5,286046998.0,N
1513932295.4,286046995.0,Y
1513932315.2,286046996.6,P
1513932335.0,286046997.7,N
1513932335.9,286046997.7,N
1513932355.8,286046996.2,Y
1513932375.6,286046998.9,P
1513932395.4,286046999.3,N
1513932415.3,286046998.8,N
1513932435.1,286046998.3,Y
1513932455.9,286047001.0,P
1513932475.7,286046998.6,N
1513932495.5,286047001.1,N
1513932515.4,286047000.4,N
1513932535.2,286047000.6,N
1513932555.1,286047000.5,N
1513932556.0,286047000.5,N
1513932575.8,286046999.9,N
1513932595.6,286047000.8,N
1513932615.5,286047002.7,Y
1513932635.3,286047001.1,P
1513932655.1,286046999.0,N
1513932675.9,286046999.1,N
1513932695.7,286046997.0,Y
1513932715.6,286046998.2,P
1513932735.4,286046996.6,P
1513932755.2,286046999.6,N
1513932775.1,286046997.0,N
1513932776.0,286046997.0,N
1513932795.8,286046996.5,N
1513932815.7,286046999.2,N
1513932835.5,286046998.9,N
1513932855.3,286046999.6,N
1513932875.2,286046997.0,N
1513932895.0,286046998.9,N
1513932895.9,286046998.9,N
1513932915.8,286046995.0,Y
1513932935.6,286046996.6,P
1513932955.4,286046998.6,N
1513932975.3,286046999.1,N
1513932995.1,286046998.6,N
1513933015.9,286046998.6,N
1513933035.7,286046999.2,N
1513933055.5,286046998.8,N
1513933075.4,286046998.8,N
1513933095.2,286046997.5,Y
1513933115.0,286047001.1,P
1513933115.9,286047001.1,N
1513933135.8,286046999.6,N
1513933155.6,286046997.0,N
1513933175.5,286046998.8,N
1513933195.3,286046998.5,N
